ARIANE 5 DEB [SYLDA]

Last updated on Thu Jan 12 2023 00:02:03 GMT+0000 (Coordinated Universal Time)

1 54744U 22170D 23010.95133407 .00025161 00000+0 61274-2 0 9990 2 54744 5.9476 207.2210 7272451 201.2620 96.6988 2.29552542 644

Satellite not in orbit

ARIANE 5 DEB [SYLDA]